User: anonymous   Login
Location: Unspecified
(0.0000°N, 0.0000°E)
Time: 04:46:53
(UTC+02:00)
Language:

ITAMSAT 1 - Orbit

View from above orbital plane
View from above orbital plane
View from above satellite
View from above satellite

Ground track
Ground track

The orbit data is extracted from the following two-line orbital elements,

1 22826U 93061D   17113.86956410 +.00000038 +00000-0 +32130-4 0  9995
2 22826 098.8012 078.8882 0009899 117.1446 243.0747 14.30321684229563
Epoch (UTC): 23 April 2017 20:52:10
Eccentricity: 0.0009899
inclination: 98.8012°
perigee height: 783 km
apogee height: 798 km
right ascension of ascending node: 78.8882°
argument of perigee: 117.1446°
revolutions per day: 14.30321684
mean anomaly at epoch: 243.0747°
orbit number at epoch: 22956

The dashed part of the orbit path shows where the satellite is in the earth's shadow,  

DLR